SCP
0 0 0 0 0 0 0 0 0 0 0 -0 -0 -0 -0 -0 -0 0 -0 0 -0 -0 -0 0 0 0 0 0 0 0 0 0
0 0 0 0 0 0 0 0 0 0 0 -0 0 -0 -0 -0 -0 -0 -0 -0 0 0 -0 0 0 0 0 0 0 0 0 0
0 0 0 0 0 0 0 0 0 0 0 -0 0 0 0 0 0 -0 -0 -0 -0 0 -0 -0 0 0 0 0 0 0 0 0
0 0 0 0 0 0 0 0 0 0 0 0 0 0 0 0 0 0 0 0 0 0 0 0 0 0 0 0 0 0 0 0
0 0 0 0 0 0 0 0 0 0 0 0 0 0 0 0 0 0 0 0 0 0 0 0 0 0 0 0 0 0 0 0
0 0 0 0 0 0 0 0 0 0 0 0 0 0 0 0 0 0 0 0 0 0 0 0 0 0 0 0 0 0 0 0
0 0 0 0 0 0 0 0 0 0 0 0 0 0 0 0 0 0 0 0 0 0 0 0 0 0 0 0 0 0 0 0
0 0 0 0 0 0 0 0 0 0 0 0 0 0 0 0 0 0 0 0 0 0 0 0 0 0 0 0 0 0 0 0
0 0 0 0 0 0 0 0 0 0 0 0 0 0 0 0 0 0 -0 0 0 0 0 0 0 0 0 0 0 0 0 0
0 0 0 0 0 0 0 0 0 0 0 0 0 -0 -0 -0 0 0 0 0 0 0 0 0 0 0 0 0 0 0 0 0
0 0 0 0 0 0 0 0 0 0 0 0 0 0 -0 -0 -0 0 0 0 0 0 0 0 0 0 0 0 0 0 0 0
0 0 0 0 0 0 0 0 0 0 0 0 0 0 0 0 -0 0 0 -0 0 0 0 0 0 0 0 0 0 0 0 0
0 0 0 0 0 0 0 0 0 0 0 0 0 0 0 0 0 -0 0 -0 -0 0 0 0 0 0 0 0 0 0 0 0
0 0 0 0 0 0 0 0 0 0 0 0 0 0 0 0 0 -0 -0 0 -0 -0 -0 0 0 0 0 0 0 0 0 0
0 0 0 0 0 0 0 0 0 0 0 0 0 0 0 0 0 0 -0 -0 -0 -0 0 0 0 0 0 0 0 0 0 0
0 0 0 0 0 0 0 0 0 0 0 0 0 0 0 0 0 0 0 -0 -0 -0 -0 0 0 0 0 0 0 0 0 0
0 0 0 0 0 0 0 0 0 0 0 0 0 0 0 0 0 0 0 0 -0 -0 0 0 0 0 0 0 0 0 0 0
0 0 0 0 0 0 0 0 0 0 0 0 0 0 0 0 0 0 0 0 0 0 0 0 0 0 0 0 0 0 0 0
0 0 0 0 0 0 0 0 0 0 0 0 0 0 0 0 0 0 0 0 0 0 0 0 0 0 0 0 0 0 0 0
0 0 0 0 0 0 0 0 0 0 0 0 0 0 0 0 0 0 0 0 0 0 0 0 0 0 0 0 0 0 0 0
Wind_Speed_500mb
50 41 24 18 15 24 37 39 40 38 40 41 42 37 35 40 43 43 41 40 40 37 37 27 22 23 26 25 23 13 10 13
43 40 24 20 23 29 27 29 27 38 44 43 41 43 42 40 38 38 36 36 38 40 36 35 28 22 19 26 26 24 13 20
30 27 20 21 21 23 22 28 41 41 42 46 42 37 36 37 34 34 36 37 37 38 38 37 35 30 27 20 23 30 24 12
21 21 21 21 21 22 25 28 38 44 36 35 37 37 37 37 35 32 28 30 32 32 33 37 41 38 31 28 23 15 24 20
16 20 22 26 28 28 29 31 30 33 32 34 37 40 41 41 39 36 32 28 25 27 30 32 34 39 38 34 27 24 18 15
22 26 28 28 28 28 29 29 30 31 34 38 38 41 41 40 39 38 35 32 30 25 22 26 30 33 37 37 35 30 23 23
23 28 33 35 35 36 37 37 37 38 38 39 41 42 44 45 44 41 40 35 31 29 27 24 25 29 31 34 37 35 31 23
30 36 41 43 45 47 48 49 49 50 50 50 48 47 47 49 49 48 43 40 36 33 31 27 25 24 29 30 32 34 35 33
39 44 47 49 52 54 55 56 58 59 59 58 57 56 54 52 51 49 48 42 41 37 35 31 27 26 24 26 26 30 33 35
45 45 45 50 56 60 63 64 63 64 63 64 64 62 59 57 53 50 50 46 41 38 37 36 29 28 27 26 23 24 27 30
41 42 45 48 49 51 50 49 51 52 55 58 61 61 60 57 56 52 48 47 45 42 37 38 36 29 29 28 24 23 22 25
34 32 33 34 35 38 41 43 47 48 49 50 51 54 55 55 53 52 51 48 45 45 39 38 35 31 28 28 27 23 21 23
19 17 23 29 35 38 42 45 47 49 50 48 48 49 51 52 51 50 50 50 47 45 41 36 34 28 27 27 28 27 23 21
16 17 22 27 32 36 40 45 48 50 50 50 47 48 48 50 51 49 47 48 48 45 44 40 39 30 24 24 27 29 30 23
13 14 18 22 27 32 37 42 45 49 52 54 54 51 48 46 44 44 44 45 44 45 45 43 41 38 29 24 26 29 32 31
11 11 13 17 22 28 33 38 42 46 50 54 56 55 52 48 47 44 38 37 42 44 46 49 48 40 37 35 29 24 27 35
9 7 9 12 17 23 29 35 42 47 51 53 55 56 56 56 52 41 40 36 34 36 37 45 45 45 43 39 37 25 23 34
10 8 7 9 14 19 23 29 35 40 45 49 52 54 57 58 61 65 49 42 36 34 36 39 44 46 48 47 43 36 36 30
14 12 12 11 15 18 21 25 29 33 39 44 48 52 55 58 59 60 64 67 57 39 38 35 38 45 48 47 49 46 43 38
19 19 19 16 19 22 23 26 29 33 36 41 44 47 51 54 57 58 60 62 64 61 44 36 36 38 41 47 47 49 46 43
Wind_Direction_500mb
356 352 337 308 312 331 341 347 343 346 354 349 344 345 344 345 351 358 2 5 359 358 1 357 335 344 354 358 346 330 290 278
7 8 343 314 317 339 350 344 343 341 341 342 344 344 343 342 343 351 359 2 8 7 1 2 2 340 347 348 352 350 305 270
7 8 345 326 334 338 341 338 334 336 330 327 335 340 344 343 340 340 347 356 359 5 5 3 6 5 356 324 335 342 345 303
358 355 348 339 343 342 338 334 324 323 331 334 343 349 349 347 344 337 336 345 351 356 359 5 6 11 7 5 346 322 325 340
349 345 336 333 336 336 339 338 336 335 339 346 348 352 354 351 348 345 333 330 338 347 354 358 3 1 10 11 6 358 333 318
343 336 330 329 334 336 337 335 333 330 331 334 338 338 341 343 345 347 348 332 319 326 341 348 350 358 359 5 13 5 357 328
324 321 318 320 322 323 324 325 326 325 323 322 322 324 327 332 337 338 340 345 331 308 316 331 343 345 354 356 2 7 3 353
314 314 311 312 313 312 312 311 310 310 310 308 308 312 316 319 322 326 331 332 336 335 306 309 322 335 340 350 352 358 1 3
306 306 304 305 304 304 303 301 300 300 301 303 302 302 304 305 307 310 315 322 325 330 332 305 305 315 326 335 348 354 358 0
303 301 301 303 306 307 306 304 301 297 295 295 298 299 301 301 301 302 303 307 311 318 323 324 305 296 305 315 330 347 356 0
298 298 307 312 319 324 324 321 319 314 307 297 294 296 299 301 301 301 301 299 302 304 313 316 312 298 290 300 312 329 344 355
300 309 317 328 336 345 347 346 343 337 329 316 303 299 299 300 302 301 299 297 298 297 299 300 301 301 285 282 293 305 324 339
296 313 321 332 338 344 347 347 345 342 340 336 324 312 306 303 300 300 300 298 297 296 293 293 290 290 288 275 275 284 296 315
303 323 328 335 339 345 347 347 348 348 346 343 338 328 321 314 307 303 300 298 297 297 294 291 287 284 280 280 266 264 274 284
302 322 328 338 343 347 349 351 351 351 351 350 349 344 339 332 326 316 309 303 298 297 292 289 285 285 282 270 265 257 260 267
294 315 331 343 347 351 354 353 355 358 358 356 355 352 349 346 340 335 329 319 310 299 296 291 283 282 284 281 263 265 271 262
269 296 322 339 346 354 358 359 359 1 360 360 358 357 355 350 349 346 337 332 319 308 299 289 287 285 285 289 270 251 287 275
242 260 291 323 339 351 356 357 360 1 0 1 1 0 358 357 353 349 353 344 336 326 310 298 290 285 276 273 272 250 248 248
240 255 273 296 315 332 340 346 351 354 357 359 0 1 1 359 356 353 350 347 346 339 328 320 301 286 279 273 268 261 242 237
244 253 265 278 295 309 318 327 334 341 347 349 349 354 357 357 356 354 352 350 347 343 337 321 308 296 288 276 267 260 253 232
Wind_Speed_850mb
50 41 24 18 15 24 37 39 40 38 40 41 42 37 35 40 43 43 41 40 40 37 37 27 22 23 26 25 23 13 10 13
43 40 24 20 23 29 27 29 27 38 44 43 41 43 42 40 38 38 36 36 38 40 36 35 28 22 19 26 26 24 13 20
30 27 20 21 21 23 22 28 41 41 42 46 42 37 36 37 34 34 36 37 37 38 38 37 35 30 27 20 23 30 24 12
21 21 21 21 21 22 25 28 38 44 36 35 37 37 37 37 35 32 28 30 32 32 33 37 41 38 31 28 23 15 24 20
16 20 22 26 28 28 29 31 30 33 32 34 37 40 41 41 39 36 32 28 25 27 30 32 34 39 38 34 27 24 18 15
22 26 28 28 28 28 29 29 30 31 34 38 38 41 41 40 39 38 35 32 30 25 22 26 30 33 37 37 35 30 23 23
23 28 33 35 35 36 37 37 37 38 38 39 41 42 44 45 44 41 40 35 31 29 27 24 25 29 31 34 37 35 31 23
30 36 41 43 45 47 48 49 49 50 50 50 48 47 47 49 49 48 43 40 36 33 31 27 25 24 29 30 32 34 35 33
39 44 47 49 52 54 55 56 58 59 59 58 57 56 54 52 51 49 48 42 41 37 35 31 27 26 24 26 26 30 33 35
45 45 45 50 56 60 63 64 63 64 63 64 64 62 59 57 53 50 50 46 41 38 37 36 29 28 27 26 23 24 27 30
41 42 45 48 49 51 50 49 51 52 55 58 61 61 60 57 56 52 48 47 45 42 37 38 36 29 29 28 24 23 22 25
34 32 33 34 35 38 41 43 47 48 49 50 51 54 55 55 53 52 51 48 45 45 39 38 35 31 28 28 27 23 21 23
19 17 23 29 35 38 42 45 47 49 50 48 48 49 51 52 51 50 50 50 47 45 41 36 34 28 27 27 28 27 23 21
16 17 22 27 32 36 40 45 48 50 50 50 47 48 48 50 51 49 47 48 48 45 44 40 39 30 24 24 27 29 30 23
13 14 18 22 27 32 37 42 45 49 52 54 54 51 48 46 44 44 44 45 44 45 45 43 41 38 29 24 26 29 32 31
11 11 13 17 22 28 33 38 42 46 50 54 56 55 52 48 47 44 38 37 42 44 46 49 48 40 37 35 29 24 27 35
9 7 9 12 17 23 29 35 42 47 51 53 55 56 56 56 52 41 40 36 34 36 37 45 45 45 43 39 37 25 23 34
10 8 7 9 14 19 23 29 35 40 45 49 52 54 57 58 61 65 49 42 36 34 36 39 44 46 48 47 43 36 36 30
14 12 12 11 15 18 21 25 29 33 39 44 48 52 55 58 59 60 64 67 57 39 38 35 38 45 48 47 49 46 43 38
19 19 19 16 19 22 23 26 29 33 36 41 44 47 51 54 57 58 60 62 64 61 44 36 36 38 41 47 47 49 46 43
Wind_Direction_850mb
356 352 337 308 312 331 341 347 343 346 354 349 344 345 344 345 351 358 2 5 359 358 1 357 335 344 354 358 346 330 290 278
7 8 343 314 317 339 350 344 343 341 341 342 344 344 343 342 343 351 359 2 8 7 1 2 2 340 347 348 352 350 305 270
7 8 345 326 334 338 341 338 334 336 330 327 335 340 344 343 340 340 347 356 359 5 5 3 6 5 356 324 335 342 345 303
358 355 348 339 343 342 338 334 324 323 331 334 343 349 349 347 344 337 336 345 351 356 359 5 6 11 7 5 346 322 325 340
349 345 336 333 336 336 339 338 336 335 339 346 348 352 354 351 348 345 333 330 338 347 354 358 3 1 10 11 6 358 333 318
343 336 330 329 334 336 337 335 333 330 331 334 338 338 341 343 345 347 348 332 319 326 341 348 350 358 359 5 13 5 357 328
324 321 318 320 322 323 324 325 326 325 323 322 322 324 327 332 337 338 340 345 331 308 316 331 343 345 354 356 2 7 3 353
314 314 311 312 313 312 312 311 310 310 310 308 308 312 316 319 322 326 331 332 336 335 306 309 322 335 340 350 352 358 1 3
306 306 304 305 304 304 303 301 300 300 301 303 302 302 304 305 307 310 315 322 325 330 332 305 305 315 326 335 348 354 358 0
303 301 301 303 306 307 306 304 301 297 295 295 298 299 301 301 301 302 303 307 311 318 323 324 305 296 305 315 330 347 356 0
298 298 307 312 319 324 324 321 319 314 307 297 294 296 299 301 301 301 301 299 302 304 313 316 312 298 290 300 312 329 344 355
300 309 317 328 336 345 347 346 343 337 329 316 303 299 299 300 302 301 299 297 298 297 299 300 301 301 285 282 293 305 324 339
296 313 321 332 338 344 347 347 345 342 340 336 324 312 306 303 300 300 300 298 297 296 293 293 290 290 288 275 275 284 296 315
303 323 328 335 339 345 347 347 348 348 346 343 338 328 321 314 307 303 300 298 297 297 294 291 287 284 280 280 266 264 274 284
302 322 328 338 343 347 349 351 351 351 351 350 349 344 339 332 326 316 309 303 298 297 292 289 285 285 282 270 265 257 260 267
294 315 331 343 347 351 354 353 355 358 358 356 355 352 349 346 340 335 329 319 310 299 296 291 283 282 284 281 263 265 271 262
269 296 322 339 346 354 358 359 359 1 360 360 358 357 355 350 349 346 337 332 319 308 299 289 287 285 285 289 270 251 287 275
242 260 291 323 339 351 356 357 360 1 0 1 1 0 358 357 353 349 353 344 336 326 310 298 290 285 276 273 272 250 248 248
240 255 273 296 315 332 340 346 351 354 357 359 0 1 1 359 356 353 350 347 346 339 328 320 301 286 279 273 268 261 242 237
244 253 265 278 295 309 318 327 334 341 347 349 349 354 357 357 356 354 352 350 347 343 337 321 308 296 288 276 267 260 253 232